Vertical_Velocity
-0 1 0 -0 -0 -0 -0 -1 -2 -0 -1 0 -2 -0 -2 -5 1 -2 -3 -2 1 -0 -2 -1 -1 -0 -0 0 0 1 1 1 -0
3 1 1 1 0 -1 1 1 -2 -2 -1 -1 1 1 0 0 -1 -3 -2 0 -1 -1 1 -0 -0 -1 -0 0 -0 -1 -1 -1 -0
-2 2 2 2 -1 2 -1 2 1 -1 -2 -1 -0 -2 0 -2 2 -4 -3 -1 -1 -2 -2 -2 -2 -2 -2 -1 -1 -1 -1 -1 -0
-1 -1 1 1 0 -1 -3 -1 1 1 -0 -1 -2 0 1 -1 1 3 1 -1 -2 -2 -2 -2 -2 -1 -2 -1 -1 0 -0 -1 -1
-1 -0 -1 1 -1 1 1 -1 -1 -2 0 -1 -1 -1 -2 -0 -1 -1 -1 0 1 -0 -0 -1 -1 -2 -1 -0 -1 -1 -1 -0 -2
-1 -0 1 -3 -1 -1 -2 -1 1 -1 -0 0 0 -1 -0 -2 -2 -3 -1 -1 -1 1 0 -1 -0 -1 -0 -1 -2 -1 -2 -2 -2
-1 -0 -0 0 -1 -1 -2 -0 -2 -2 0 -1 1 2 0 -5 4 -2 -2 -1 0 -1 -1 -0 -1 1 0 -1 -1 -1 -2 -1 -1
2 -0 -1 -0 -2 1 -0 -3 -3 -2 -2 -5 -2 -3 0 -1 -1 -4 -2 -1 -2 -2 -1 -2 -1 -2 -1 -0 -1 -1 -0 -1 -1
6 -5 -4 -1 -1 -3 0 -0 1 -1 -1 -3 -1 -3 -3 -1 -1 0 0 -1 -2 -0 -1 -1 -1 -0 -1 -3 -3 -1 0 -0 0
-0 0 -1 -2 1 0 -4 -2 -1 1 -0 -1 1 -1 -2 -3 -1 -2 -4 -3 -2 -4 -3 -2 -1 -1 -3 -2 -0 1 1 -2 -1
1 -1 -2 1 -3 -1 2 -3 -3 -4 -0 -1 -4 -1 1 -1 -1 -1 -1 -2 -3 -3 -4 -0 -0 -0 -1 1 -1 -1 -2 0 1
-5 -0 2 1 1 2 0 2 5 2 8 2 2 1 1 -0 -3 -2 -3 -4 -4 -4 -0 -7 -3 -2 1 -1 -4 1 2 2 -1
-2 0 -2 4 3 2 3 3 8 1 -2 -0 -3 1 1 3 1 6 3 0 -0 0 -1 -1 -7 -2 -4 1 1 0 -3 -1 -2
-1 -5 -0 1 4 3 3 2 -1 -0 2 5 1 1 -0 1 4 3 4 3 3 -0 -3 0 3 1 -5 -2 0 0 6 -2 -1
-1 -1 1 3 -2 2 4 0 2 -1 0 -1 -1 2 -4 -2 -3 5 -2 -1 3 -0 0 2 0 2 3 3 1 1 5 2 4
-1 8 16 0 0 1 -0 1 -0 -1 -1 10 1 -1 -0 -4 1 -4 2 -3 0 -2 2 -5 3 -2 -8 -1 1 0 -2 -5 5
2 -2 -4 0 2 -1 1 0 -5 -5 3 0 5 1 -4 1 -5 -3 -3 -1 3 4 1 -0 6 -5 -2 -3 1 -10 -5 -1 -7
6 -1 1 2 -3 -2 3 2 1 -2 1 4 7 -2 -5 1 -3 -8 -0 1 6 9 2 -2 10 -3 1 -9 8 -4 -4 -2 1
4 -2 1 -1 1 1 -1 1 1 4 -1 2 -1 9 -1 3 -6 1 -3 0 2 3 5 2 6 6 -3 2 7 -6 2 -9 4
1 3 -3 -0 -1 -1 -1 -1 -0 2 5 -0 0 -1 3 4 3 -5 -1 7 -7 6 2 8 8 2 -2 3 -2 5 -1 -2 -2
Height
1543 1543 1545 1546 1547 1547 1548 1549 1550 1550 1551 1552 1554 1555 1556 1557 1558 1558 1557 1557 1556 1556 1555 1555 1555 1554 1554 1554 1553 1553 1552 1551 1550
1543 1544 1545 1546 1547 1548 1548 1549 1550 1551 1552 1553 1554 1555 1557 1557 1558 1558 1557 1557 1557 1557 1556 1556 1555 1555 1555 1555 1554 1553 1553 1552 1551
1542 1544 1545 1547 1547 1548 1549 1550 1550 1551 1552 1553 1554 1555 1556 1557 1559 1558 1557 1558 1558 1557 1557 1557 1556 1556 1556 1555 1555 1554 1553 1553 1552
1541 1542 1544 1546 1547 1548 1549 1550 1550 1551 1552 1553 1554 1555 1556 1557 1558 1558 1558 1557 1557 1557 1557 1557 1556 1556 1556 1555 1555 1555 1554 1553 1552
1539 1540 1542 1544 1546 1547 1548 1549 1550 1551 1552 1553 1554 1555 1556 1557 1558 1558 1558 1558 1557 1556 1556 1556 1556 1556 1556 1555 1555 1554 1554 1553 1552
1537 1539 1540 1542 1544 1545 1546 1548 1549 1550 1551 1552 1553 1555 1556 1556 1558 1557 1557 1557 1557 1556 1556 1556 1555 1555 1555 1554 1554 1554 1553 1553 1552
1535 1537 1539 1540 1542 1543 1544 1546 1547 1549 1550 1551 1553 1554 1554 1554 1557 1557 1556 1556 1556 1555 1555 1555 1554 1554 1554 1553 1553 1552 1552 1551 1551
1534 1534 1536 1537 1539 1540 1541 1543 1545 1546 1548 1548 1551 1552 1553 1553 1555 1554 1554 1554 1554 1554 1553 1553 1553 1552 1552 1552 1551 1551 1550 1550 1549
1531 1532 1533 1535 1535 1537 1539 1540 1542 1544 1545 1546 1548 1548 1550 1551 1552 1552 1552 1552 1552 1552 1551 1551 1551 1550 1550 1550 1549 1549 1548 1547 1547
1528 1529 1529 1531 1532 1534 1535 1537 1539 1540 1541 1543 1546 1546 1547 1548 1548 1549 1549 1549 1549 1549 1549 1549 1549 1548 1548 1548 1547 1546 1546 1545 1544
1524 1524 1526 1527 1529 1532 1533 1534 1536 1538 1539 1540 1541 1543 1543 1544 1545 1545 1545 1545 1545 1545 1545 1546 1546 1545 1545 1545 1545 1544 1544 1543 1542
1521 1522 1522 1523 1525 1528 1530 1532 1534 1536 1537 1537 1537 1538 1539 1539 1540 1541 1541 1541 1540 1541 1541 1542 1543 1543 1542 1542 1542 1542 1541 1541 1540
1515 1517 1519 1520 1521 1524 1526 1527 1530 1531 1532 1534 1534 1534 1536 1536 1537 1537 1537 1536 1536 1536 1537 1537 1537 1539 1539 1539 1538 1538 1538 1537 1536
1509 1511 1514 1517 1518 1520 1521 1523 1525 1527 1528 1529 1529 1531 1532 1533 1533 1533 1534 1535 1533 1533 1533 1534 1533 1533 1535 1535 1535 1534 1534 1533 1532
1505 1507 1510 1512 1514 1516 1517 1520 1521 1523 1524 1525 1526 1526 1526 1527 1527 1528 1529 1530 1530 1529 1529 1529 1528 1528 1530 1531 1531 1531 1530 1529 1528
1499 1502 1505 1506 1510 1512 1514 1516 1518 1519 1521 1521 1521 1520 1520 1521 1522 1522 1522 1523 1524 1524 1523 1523 1523 1523 1524 1525 1525 1526 1526 1525 1524
1495 1497 1500 1503 1506 1507 1510 1512 1514 1514 1516 1517 1518 1515 1515 1514 1515 1516 1515 1516 1518 1518 1518 1518 1517 1517 1518 1520 1521 1522 1521 1520 1520
1490 1493 1495 1497 1500 1502 1505 1506 1507 1508 1511 1512 1514 1512 1509 1509 1508 1509 1509 1510 1512 1512 1511 1513 1514 1513 1514 1514 1515 1516 1517 1517 1515
1484 1487 1489 1492 1494 1497 1499 1501 1501 1503 1503 1505 1506 1505 1505 1504 1504 1503 1503 1505 1506 1506 1507 1508 1509 1508 1509 1510 1510 1510 1510 1511 1509
1477 1480 1483 1486 1488 1490 1491 1492 1494 1496 1497 1497 1497 1497 1499 1498 1498 1497 1500 1498 1500 1502 1501 1502 1503 1503 1504 1505 1504 1503 1504 1504 1503